Theta_e
300 300 299 299 298 297 298 298 298 299 297 298 298 298 297 296 296 297 295 295 295 294 293 293 292 292 291 291 291 291 292 292 291 291 292 292 291 292 290 291 291 289 288 287 286 287 286 285 284 283 282 282 282 281 280 280 280 280 279 279 279 278 279 278 277 276 278 277 279 280 281 281 280 281 280 281 281 281 283 281 280 279 278 278 278
300 299 298 298 297 297 296 296 297 297 296 295 293 294 294 294 294 293 294 294 294 294 293 292 292 291 291 291 291 291 291 292 291 291 291 291 290 291 290 290 290 289 288 287 286 286 285 284 283 283 283 282 281 280 280 279 279 278 277 278 277 278 277 276 275 274 275 277 278 279 279 281 279 281 280 280 280 280 279 280 280 279 278 278 278
299 298 298 297 296 295 294 293 294 293 293 293 292 292 293 292 292 293 294 293 292 293 293 292 291 291 290 290 290 290 291 291 290 291 291 291 290 290 290 290 290 288 287 287 285 285 284 284 282 282 282 281 280 280 279 278 278 278 277 278 277 277 277 276 274 274 275 275 276 279 279 279 279 279 280 281 281 280 278 278 278 279 280 279 278
297 297 297 296 294 292 293 292 291 291 292 292 292 292 292 291 290 292 293 292 292 291 291 291 290 290 290 289 289 290 290 290 290 291 291 291 290 289 289 289 289 288 287 286 284 284 283 282 281 280 280 280 279 279 278 278 278 278 278 277 278 278 278 277 276 275 276 277 277 277 278 278 279 279 279 279 278 278 278 278 278 278 278 279 279
296 296 293 292 290 291 291 291 291 291 292 291 291 291 291 291 290 291 290 290 290 290 288 289 289 289 289 289 289 289 289 289 289 290 290 290 290 289 288 288 288 287 287 285 284 284 283 283 282 281 280 279 278 278 278 278 278 278 278 278 278 278 279 278 278 278 278 277 277 277 277 277 277 277 278 277 277 277 277 277 278 278 278 277 278
295 295 293 292 291 291 291 290 291 291 291 290 291 290 290 290 290 290 290 290 289 289 289 288 288 288 288 288 288 288 289 289 289 289 289 289 288 288 287 287 287 286 286 285 284 283 283 282 281 280 279 279 278 278 278 278 278 278 278 278 279 279 279 278 278 278 278 277 277 276 277 277 277 277 277 277 276 275 276 276 275 276 276 276 276
295 294 293 292 292 291 291 291 291 290 290 291 290 290 290 289 289 289 288 289 289 289 288 288 287 288 288 288 287 287 288 288 288 288 288 288 287 287 286 286 285 285 284 283 282 282 282 281 280 280 279 279 278 278 278 278 279 279 279 279 279 279 279 278 278 277 277 277 277 277 277 277 277 276 277 277 276 276 275 276 276 276 275 275 275
294 293 292 292 292 293 292 291 290 290 290 289 289 289 289 288 288 287 287 287 288 288 288 287 287 287 287 287 287 286 286 286 287 287 287 287 286 286 285 285 283 283 282 281 281 280 280 280 280 279 280 280 279 279 279 279 280 279 278 279 279 279 278 278 278 277 277 277 277 276 277 277 277 277 277 277 276 276 276 275 275 276 276 276 276
294 294 293 293 294 293 291 290 290 290 289 289 288 288 287 287 286 286 286 287 288 288 287 287 286 286 286 285 285 285 285 285 286 286 286 285 286 285 284 284 283 282 281 280 280 279 279 279 279 279 280 281 282 282 282 283 280 279 278 279 278 278 278 278 278 278 277 277 277 277 276 276 277 277 277 278 277 278 277 275 275 276 276 276 276
294 294 294 295 295 292 291 290 290 289 289 289 289 288 287 286 286 285 285 286 286 286 287 287 286 285 285 284 284 284 284 285 285 287 287 285 285 284 284 283 282 282 280 279 279 279 279 279 279 281 282 282 283 284 285 285 284 282 279 279 278 278 277 277 277 277 277 276 276 277 276 276 277 279 278 279 280 279 278 277 276 277 275 276 277
293 294 294 295 294 291 291 290 289 289 289 288 288 287 287 285 285 285 284 285 286 285 286 286 285 285 285 284 284 284 284 284 286 288 289 288 285 283 283 283 282 281 281 279 278 278 278 278 279 281 282 282 283 285 286 286 285 284 284 283 282 280 278 277 277 278 277 276 277 277 277 277 279 280 279 280 280 279 278 277 276 275 274 274 274
293 294 294 294 292 291 291 290 289 289 288 288 287 287 286 285 284 284 284 284 284 285 285 285 285 285 285 284 284 284 284 285 288 289 289 289 286 284 283 283 282 281 281 280 279 278 278 278 280 281 281 282 283 284 285 285 285 285 284 284 284 283 283 281 279 278 277 277 277 277 278 278 279 280 280 280 279 279 278 276 276 276 275 275 275
293 293 293 292 291 291 290 289 289 288 288 287 287 286 285 284 284 283 283 283 283 284 285 284 284 284 284 283 283 283 283 286 288 289 289 289 288 285 283 282 281 281 280 279 279 278 278 279 279 280 281 283 283 283 283 284 285 285 284 284 284 285 285 285 284 281 280 279 278 278 280 280 280 280 281 279 280 277 277 277 277 277 277 276 277
292 292 291 291 290 289 289 288 288 288 287 286 286 285 285 284 283 283 283 282 283 283 284 284 284 283 283 283 283 282 282 285 289 289 289 289 289 286 282 282 281 281 280 279 279 278 279 279 279 279 281 282 282 283 283 282 282 282 282 282 282 283 284 285 285 284 283 281 280 280 281 281 280 281 281 281 279 278 278 277 279 278 278 278 279
290 290 290 290 289 288 288 288 288 286 286 286 285 285 284 284 282 282 282 282 282 283 284 284 283 283 283 283 283 282 281 287 289 289 289 289 288 286 282 282 281 280 279 279 279 279 279 280 280 280 281 281 281 282 281 282 282 282 282 281 282 282 282 282 283 283 283 283 282 282 282 283 282 281 281 281 281 281 280 280 280 279 279 279 278
290 289 289 289 288 288 288 287 287 286 285 285 284 284 283 283 282 282 282 282 282 283 284 284 284 283 283 283 282 282 282 288 288 289 289 290 288 283 282 281 280 280 279 279 279 279 279 280 280 280 280 280 282 284 283 282 281 280 280 280 279 279 280 282 283 284 283 282 282 281 280 282 284 282 282 282 281 281 281 279 276 276 276 275 274
289 289 289 289 288 288 288 287 286 285 285 284 284 283 282 282 281 282 282 282 283 283 283 283 284 283 282 282 282 281 282 286 288 288 289 290 286 282 281 281 280 279 279 279 279 278 279 279 280 280 280 280 283 285 284 283 280 279 278 278 278 278 278 280 283 284 285 285 285 285 285 285 286 286 285 286 284 283 281 278 277 278 276 274 275
289 288 288 288 288 287 287 287 286 285 284 284 283 282 282 282 281 282 282 282 283 283 283 283 283 283 282 282 282 281 282 285 288 288 289 288 284 282 281 280 279 279 278 278 279 278 279 281 281 280 280 281 285 286 286 283 280 279 278 277 277 277 278 279 279 281 284 285 285 285 285 285 285 285 285 285 285 284 280 277 278 278 275 275 274
288 287 287 287 286 287 286 286 286 285 284 283 283 282 281 281 280 281 282 282 283 283 283 282 282 282 282 282 282 281 282 284 287 288 288 287 284 282 281 280 279 278 278 278 279 279 279 281 281 281 281 282 286 287 286 283 280 280 279 279 278 278 279 278 277 276 277 277 278 279 280 282 282 281 281 284 284 283 282 280 279 277 275 275 275
286 284 284 285 285 285 285 285 284 284 283 282 281 281 280 279 279 280 281 282 282 282 282 282 281 281 281 281 281 281 282 284 286 287 288 287 285 282 281 279 278 278 278 278 278 279 280 281 282 284 285 286 287 288 287 285 282 281 281 279 279 278 280 278 278 278 278 279 278 279 279 280 280 280 280 280 280 281 281 280 279 278 276 276 275
282 283 282 283 282 283 283 284 283 282 282 281 280 279 279 280 279 280 281 282 282 281 281 281 280 280 280 281 280 280 282 283 285 287 288 286 285 283 281 280 279 279 278 278 278 279 279 280 282 285 287 288 288 288 287 287 285 282 281 280 280 281 282 279 280 281 279 279 279 279 279 279 279 279 279 279 279 279 279 280 279 278 277 275 274
281 281 280 280 280 281 281 280 282 281 280 280 279 278 278 279 280 280 281 281 280 280 280 280 279 279 279 279 279 279 281 283 284 286 287 286 285 284 281 281 280 279 279 278 279 279 280 280 281 285 287 287 287 287 287 287 287 283 282 284 285 285 283 281 280 279 279 279 279 277 276 276 277 277 277 277 278 277 277 275 275 276 277 276 275
281 280 279 280 279 279 279 280 280 280 280 280 279 278 278 278 279 280 280 280 280 279 279 278 278 278 278 278 278 279 280 282 284 285 286 286 285 284 283 282 283 281 279 278 279 279 280 281 282 284 286 286 287 287 287 287 286 284 286 285 285 284 282 278 279 277 276 274 273 271 272 273 274 274 275 273 273 272 272 271 273 275 276 277 277
279 279 278 278 278 278 278 278 279 279 279 279 278 278 277 278 278 279 280 279 279 278 278 278 277 277 276 277 277 278 279 280 283 285 285 286 285 285 284 284 284 281 281 280 281 281 281 282 283 285 286 286 287 287 287 285 282 285 284 284 283 281 278 276 273 271 271 270 269 268 268 269 269 269 270 269 269 270 270 270 272 274 274 274 274
279 278 278 277 278 277 277 278 278 277 278 278 278 277 276 277 277 277 279 279 279 278 277 277 277 276 276 276 276 277 278 279 282 284 285 285 285 285 285 285 284 284 283 283 283 283 284 285 286 286 286 286 286 285 284 284 284 284 284 282 278 271 270 268 267 266 266 267 267 266 266 269 270 269 271 272 272 271 268 266 267 269 270 269 267
278 278 277 277 277 277 277 276 277 277 277 277 278 278 277 277 277 277 278 278 278 278 277 277 277 277 276 276 276 277 277 279 281 283 284 284 284 285 285 285 285 285 284 284 284 285 286 286 286 285 284 283 280 277 276 276 281 281 281 278 269 269 268 266 266 266 266 266 267 266 267 266 268 271 272 273 271 268 266 267 267 269 268 267 265
278 277 277 277 277 277 278 277 277 277 276 277 277 278 278 277 277 278 278 278 278 278 278 277 277 276 276 276 276 276 276 277 279 280 282 283 284 285 285 284 284 284 283 283 284 284 284 282 282 282 280 281 279 279 278 279 276 274 272 271 268 266 267 266 266 266 267 266 267 267 267 268 271 273 271 269 267 266 267 269 269 268 267 265 264
278 277 277 277 278 277 278 278 278 277 277 278 277 277 277 278 278 278 278 278 278 278 277 277 277 277 276 276 276 275 275 276 277 278 279 281 282 283 282 281 281 280 280 280 279 279 279 281 280 277 276 275 275 272 271 271 271 272 270 270 269 270 272 274 274 269 269 270 271 271 271 271 271 270 270 268 267 267 268 267 267 264 264 264 263
277 276 277 277 277 278 278 278 278 278 278 279 279 280 279 279 279 278 278 279 279 279 278 278 278 278 278 276 275 274 274 275 276 281 279 282 280 280 280 279 279 279 280 280 277 276 276 275 274 274 273 273 271 270 270 270 271 272 271 270 270 270 271 271 272 271 271 270 270 270 270 270 269 269 267 266 266 266 267 265 263 262 262 264 263
276 277 277 278 278 278 278 278 278 279 279 279 279 279 281 282 281 280 280 282 282 282 282 279 280 279 278 278 277 276 275 276 280 282 282 283 283 283 282 281 281 279 281 281 278 275 274 273 272 272 271 271 271 271 272 272 273 273 273 275 274 273 272 272 271 270 270 268 266 267 267 267 264 263 263 266 267 266 266 268 261 261 261 260 260
278 278 279 279 280 279 279 278 279 279 279 279 279 279 279 281 283 283 283 283 283 283 283 283 283 282 279 277 279 281 280 281 281 282 283 283 283 283 283 283 283 283 283 277 274 273 272 272 271 272 272 272 273 273 274 274 274 273 272 272 273 273 272 269 266 267 266 264 265 264 263 262 262 263 263 265 264 262 259 261 260 259 259 259 258
279 280 280 280 281 280 280 279 279 279 279 279 279 278 278 278 279 283 284 284 284 284 284 284 283 283 282 280 279 278 281 282 282 282 283 283 283 283 283 284 283 283 282 280 273 272 272 272 272 273 274 274 274 274 274 274 273 273 272 270 270 269 268 265 264 259 260 259 261 262 261 261 260 262 262 261 263 258 258 258 257 258 258 257 257
280 280 280 280 281 280 279 279 279 279 278 278 278 278 278 278 277 278 281 284 284 284 284 284 283 283 283 282 282 281 281 282 283 283 283 282 282 282 283 283 283 283 281 276 273 274 274 274 274 274 275 274 274 274 273 273 272 271 271 270 267 264 263 262 263 261 260 260 259 258 259 259 260 260 261 260 258 256 258 257 256 256 256 255 256
281 281 281 281 280 280 279 279 279 278 278 278 278 278 278 278 278 277 277 278 279 281 283 283 283 283 283 283 282 282 283 283 283 283 282 282 282 282 282 281 283 283 280 275 276 275 275 274 275 275 275 274 273 272 271 270 269 268 266 264 262 260 258 258 259 258 257 258 255 258 258 256 258 253 254 254 256 256 255 257 255 255 253 254 254
281 278 277 278 281 280 279 279 278 278 278 278 277 277 277 277 277 277 277 276 276 276 277 279 281 282 281 281 282 282 282 282 282 282 282 282 282 283 283 280 279 279 278 276 276 275 275 275 274 273 272 271 270 270 269 267 265 264 262 259 256 255 258 257 256 256 254 252 253 253 257 256 254 256 256 254 254 253 254 255 253 255 253 253 253
281 280 280 279 280 279 279 279 278 278 278 277 277 277 277 277 276 276 276 275 275 275 275 276 278 280 281 281 282 282 282 282 282 282 282 282 282 283 278 277 277 277 275 274 274 273 272 272 271 270 269 268 266 265 265 263 261 260 257 258 257 255 254 254 256 254 254 251 255 257 255 251 253 253 248 253 252 253 252 253 253 255 255 254 254
280 280 280 280 279 279 278 278 278 278 278 277 276 276 276 275 275 275 274 274 273 273 273 274 276 277 278 278 280 281 282 282 282 282 282 282 283 279 275 276 275 274 272 269 269 269 269 267 267 265 264 263 261 259 259 258 257 257 260 256 254 253 251 251 252 255 252 252 250 250 251 251 249 250 251 251 254 253 252 253 254 256 256 256 258
280 280 280 279 279 278 278 277 277 277 276 276 276 276 275 275 274 273 272 272 272 272 272 273 274 273 272 273 278 278 278 280 280 279 279 279 272 270 271 270 271 271 269 264 264 265 263 259 259 262 258 259 258 256 257 256 255 255 255 252 253 252 260 258 259 252 252 251 250 250 252 251 249 251 254 251 251 251 252 254 252 251 253 254 254
279 279 279 278 279 278 278 277 276 276 275 275 275 275 274 273 272 271 271 270 271 271 271 272 272 272 271 272 273 274 272 269 268 266 265 263 262 263 265 267 266 264 261 261 259 259 258 257 255 255 256 256 256 255 255 254 253 253 253 253 252 251 253 249 250 250 251 250 250 247 249 247 245 246 250 249 251 251 250 251 252 251 250 251 251
278 278 278 278 278 278 276 276 276 275 275 275 274 274 273 272 272 270 270 270 270 270 270 270 270 270 270 270 269 269 268 266 264 262 261 260 259 258 261 263 262 261 260 258 257 257 257 254 255 255 254 254 254 253 252 253 252 252 251 253 252 252 251 250 249 249 251 248 249 248 248 247 246 247 248 248 249 249 249 250 251 252 251 250 251
278 277 275 277 277 276 274 275 275 275 274 274 274 273 273 272 271 270 269 269 269 269 269 269 268 267 268 269 271 269 264 262 260 258 258 257 256 255 255 256 257 257 256 256 255 254 254 254 252 252 251 252 252 253 251 252 251 252 252 253 252 252 250 248 248 248 247 249 249 248 247 245 248 248 249 249 255 253 251 252 252 251 252 252 251
277 276 276 276 275 275 274 274 274 273 273 272 273 272 271 270 270 269 268 268 268 268 267 266 265 265 269 271 271 269 260 256 257 256 255 254 254 253 252 251 252 253 254 254 254 253 252 252 252 252 252 251 251 251 250 250 252 252 252 252 252 252 251 250 249 248 248 248 247 248 247 247 249 250 251 256 249 247 248 249 249 250 249 250 250
275 275 275 274 274 274 274 273 273 273 272 271 271 268 268 269 269 268 267 267 266 266 265 264 264 265 268 271 270 266 258 256 257 256 254 253 252 252 251 251 249 249 250 249 250 252 252 252 251 251 252 252 252 253 254 254 252 252 251 252 252 252 251 250 248 248 247 248 249 250 249 249 251 249 248 250 249 248 248 248 249 249 250 249 249
273 273 272 272 272 271 271 271 271 271 271 269 268 267 267 267 267 266 266 265 264 264 263 263 264 266 266 265 262 259 257 256 255 254 253 253 252 251 250 249 249 249 249 249 247 249 251 251 250 248 248 249 249 250 250 251 251 252 252 252 251 251 250 250 251 249 249 249 249 249 248 248 249 248 250 251 247 247 249 248 249 249 249 248 249
272 271 271 270 270 270 269 269 268 268 266 266 266 266 265 266 265 265 264 263 262 262 262 263 264 263 261 260 258 257 255 255 254 254 253 253 251 250 249 249 249 249 248 248 247 248 250 251 251 251 251 250 248 248 248 248 249 252 252 253 253 254 254 252 252 250 250 249 250 249 248 249 248 247 248 248 249 248 249 249 249 252 250 249 248
271 270 269 269 268 267 267 267 266 267 267 266 266 265 264 264 264 263 262 261 261 261 261 262 262 261 260 258 256 255 254 254 253 252 251 250 251 250 249 250 249 249 249 249 248 249 249 249 250 250 251 251 250 249 249 249 250 250 250 251 253 254 253 251 248 248 248 248 249 248 249 249 248 249 251 248 248 248 248 247 247 248 249 249 249
270 269 268 267 267 265 265 265 266 265 265 265 264 263 263 262 262 261 260 260 260 260 260 260 260 259 258 257 256 255 254 254 253 253 253 253 252 251 250 250 250 249 248 248 248 249 248 250 250 250 250 250 250 251 251 250 249 250 250 251 251 251 250 248 249 249 248 248 248 247 249 249 250 249 251 251 249 249 249 250 249 249 249 249 248
268 267 267 266 265 265 264 265 264 262 263 262 262 261 261 260 260 260 259 259 259 258 258 258 258 257 256 254 253 253 253 254 253 253 253 252 252 251 250 250 251 251 249 249 249 249 249 249 249 250 251 251 251 251 251 250 249 250 249 250 250 250 251 251 249 249 249 248 248 248 249 249 248 248 249 249 248 249 249 250 249 248 248 248 249
266 266 265 265 264 264 264 263 263 263 262 261 260 260 260 260 259 259 258 258 258 257 258 257 256 255 255 254 254 254 254 254 254 253 253 252 251 251 251 251 251 250 251 252 251 250 250 250 251 251 252 252 252 252 252 251 251 251 250 249 251 254 254 253 251 250 251 250 249 248 247 248 248 249 249 249 249 248 249 248 247 249 248 249 248
265 265 264 263 263 263 263 263 262 262 261 261 260 259 259 258 258 258 258 257 257 257 257 256 256 256 256 255 255 255 255 254 254 254 253 253 252 252 252 252 251 251 252 252 252 251 251 251 251 252 251 251 251 251 251 251 251 251 250 251 254 255 255 255 254 253 251 249 249 248 249 249 248 248 248 248 247 247 247 248 248 249 248 248 248
263 263 263 262 262 262 262 261 261 260 260 260 259 259 258 258 258 257 257 257 257 256 256 256 256 256 256 256 255 255 254 254 254 254 254 254 253 253 253 253 253 252 252 252 252 252 252 252 252 252 252 251 251 251 251 251 250 250 252 254 254 255 255 255 254 254 254 252 247 248 248 248 248 248 247 247 245 246 248 248 248 248 247 248 249
Wind_Speed
8 9 8 9 9 10 10 9 9 8 8 8 9 9 7 8 8 8 7 9 8 9 9 10 9 10 10 9 9 9 9 8 7 6 7 7 6 7 7 8 8 6 7 5 5 8 10 10 10 7 6 7 6 6 6 6 6 6 6 7 7 5 7 5 7 4 1 0 1 2 2 4 3 4 5 5 4 5 5 6 6 5 6 6 7
9 8 8 8 10 10 10 7 8 8 8 7 8 8 8 8 7 6 9 8 9 10 10 9 9 10 10 10 9 9 9 8 8 7 8 7 6 6 8 9 9 9 9 9 7 7 8 9 8 8 7 8 7 7 7 7 7 7 6 7 7 5 3 5 4 4 3 0 2 2 2 1 2 3 7 6 6 4 6 6 5 5 7 7 6
6 7 8 9 10 8 7 7 7 8 9 8 8 8 8 8 7 9 8 7 7 9 9 9 10 9 9 9 9 9 9 8 8 9 8 9 9 8 9 10 11 11 10 10 10 8 8 9 9 8 5 7 6 6 6 7 6 8 7 6 8 5 4 5 5 3 5 2 1 2 1 1 3 4 5 5 5 3 4 5 6 6 6 6 6
7 7 8 8 6 6 7 6 7 8 9 9 9 8 8 7 7 8 8 7 9 7 7 8 8 9 9 9 9 9 9 8 8 9 10 10 10 10 9 9 10 10 11 10 9 10 10 9 8 9 8 9 7 6 5 6 7 7 8 6 8 7 6 6 4 5 2 5 2 4 2 3 4 4 3 2 4 5 5 5 4 7 7 5 6
6 6 5 6 6 7 8 7 9 10 10 8 9 8 8 8 7 8 7 7 7 7 6 6 8 8 8 9 9 9 9 10 10 9 8 8 9 9 9 9 9 9 9 10 10 10 10 12 11 10 10 11 8 8 7 8 7 8 8 7 8 7 6 7 6 5 6 6 3 1 2 2 3 3 2 3 4 4 4 6 7 8 7 5 5
6 6 6 7 8 9 9 8 10 10 10 9 10 9 9 8 8 7 7 8 7 7 8 7 7 8 7 8 9 9 8 9 9 10 9 8 6 7 8 8 9 9 9 9 10 10 11 11 12 12 12 13 11 9 9 10 8 9 10 8 8 7 8 6 6 6 6 5 5 2 1 3 2 2 3 4 5 5 5 6 5 6 6 7 6
8 8 8 8 8 10 10 11 10 8 9 9 8 7 8 8 8 8 7 8 8 8 7 8 6 8 8 7 8 8 8 8 8 8 8 8 8 8 8 7 7 7 7 9 9 9 9 10 11 12 13 12 13 12 11 10 9 9 9 9 8 8 7 6 6 6 5 5 3 4 3 3 3 4 2 3 3 4 6 8 7 4 5 6 7
9 8 8 9 10 12 11 8 8 9 7 7 7 7 7 7 7 6 6 8 8 8 9 9 8 8 8 7 7 7 8 8 8 8 8 8 8 9 9 9 9 7 7 7 8 9 9 9 11 12 12 12 13 12 12 11 8 8 6 7 8 8 6 6 5 5 5 4 4 4 3 3 2 2 1 1 3 3 4 5 8 7 6 4 5
10 10 10 11 14 11 8 8 7 7 8 8 8 7 7 7 6 7 7 7 7 8 7 8 8 8 6 7 7 7 8 8 8 9 9 9 9 9 9 9 9 9 8 7 8 8 9 9 9 9 9 9 11 11 9 8 11 9 6 7 7 7 5 5 5 4 3 3 3 3 3 4 4 3 4 4 5 5 2 2 6 6 7 9 4
11 12 12 14 13 9 9 8 9 8 9 9 8 8 8 7 7 7 7 7 7 7 7 8 8 8 8 7 7 6 7 6 9 13 11 9 9 8 8 9 10 10 10 9 8 7 8 8 8 10 10 10 12 11 11 9 9 12 11 8 8 7 7 6 5 5 4 4 5 4 4 4 4 4 4 3 3 3 4 5 7 7 6 8 7
11 11 14 14 11 8 9 10 9 10 10 8 8 8 8 7 8 8 8 7 8 8 8 9 8 8 9 9 8 7 6 6 12 14 13 14 11 10 11 10 11 11 11 11 11 10 8 7 7 9 10 10 10 13 12 11 11 13 14 12 10 11 9 7 5 6 6 5 4 3 4 4 4 3 4 4 3 3 4 4 6 5 6 8 12
11 12 13 10 8 10 10 8 9 10 8 10 9 8 8 8 8 8 8 8 7 7 9 8 9 9 8 8 8 8 8 10 15 16 16 15 12 11 9 9 9 10 11 11 10 10 11 9 7 7 9 11 10 10 11 13 13 13 13 13 12 9 9 8 6 5 6 5 5 5 3 5 3 3 3 2 4 3 3 3 3 6 7 8 7
11 11 10 9 9 9 8 9 10 9 10 9 8 8 9 8 9 8 9 7 6 8 9 9 9 8 9 9 9 9 8 12 16 17 17 17 15 11 8 9 9 9 10 10 10 10 10 10 9 7 7 13 10 9 9 8 10 12 11 11 10 10 9 7 5 5 5 5 5 4 6 4 3 3 3 2 1 2 3 4 5 6 7 8 9
10 11 9 9 9 8 8 8 9 9 7 8 8 9 9 10 9 8 7 7 8 8 8 9 7 9 8 9 8 8 7 12 17 17 17 18 15 12 8 9 8 8 10 10 10 11 12 12 10 9 8 8 8 9 8 8 8 7 6 5 5 6 8 9 9 8 6 5 5 5 4 3 4 3 3 2 3 5 5 6 5 6 7 8 9
9 9 9 8 7 7 8 8 8 7 8 8 9 9 10 8 8 8 8 9 9 9 9 8 8 8 8 8 7 7 6 12 15 16 16 15 15 10 7 7 7 7 8 9 10 11 12 11 12 12 11 9 8 10 10 9 8 7 7 6 5 5 5 5 5 4 5 4 5 5 4 3 4 4 4 5 6 7 6 6 6 6 7 7 7
9 7 9 8 8 8 8 8 8 7 8 8 9 9 9 10 10 8 7 7 6 6 6 7 8 8 7 7 7 6 5 12 13 14 15 15 15 8 7 8 8 7 7 9 9 8 8 10 10 10 10 10 11 15 12 9 9 9 8 6 4 3 4 4 6 5 4 4 3 4 3 3 6 6 7 7 6 5 4 4 3 4 6 7 9
10 10 10 9 10 9 9 9 8 8 9 10 10 10 9 8 7 7 8 8 8 8 8 7 7 8 8 8 8 6 6 11 15 16 16 16 12 7 8 7 7 8 8 9 8 8 8 9 10 10 10 9 14 16 15 12 8 8 7 6 4 4 4 3 7 10 11 11 11 10 10 10 10 9 9 10 7 4 3 4 5 5 6 8 8
9 8 9 8 8 7 8 9 10 10 9 11 10 8 7 6 8 8 9 9 8 8 7 6 6 7 9 8 8 8 6 10 15 15 17 16 11 9 8 8 8 7 7 7 6 7 8 11 10 10 10 10 15 16 16 11 8 8 7 7 6 5 4 4 3 5 9 9 8 8 7 6 7 8 9 9 10 7 4 6 6 4 6 6 9
7 9 8 6 6 7 8 8 9 9 9 8 7 8 8 8 6 6 6 7 7 6 6 6 6 5 6 7 9 9 7 9 15 15 17 16 13 9 9 8 9 7 7 7 6 7 7 9 11 10 10 12 18 17 17 11 7 8 7 7 6 5 5 5 5 4 2 1 3 2 3 6 5 4 6 11 12 10 6 6 4 6 7 7 7
5 4 4 5 6 6 6 8 7 8 8 7 6 7 6 6 6 6 5 5 5 5 5 6 7 6 6 7 7 8 8 7 11 17 15 15 14 9 8 9 9 9 8 8 8 5 6 7 9 13 14 16 16 18 17 15 8 7 6 6 5 5 5 5 5 5 4 4 4 4 5 4 4 3 3 4 5 5 7 7 6 4 5 6 6
3 4 4 4 4 5 5 7 8 7 7 8 7 7 7 8 7 7 6 5 5 5 6 5 6 5 5 5 6 6 7 8 9 15 15 16 15 12 8 8 9 9 9 8 8 9 8 7 6 11 15 16 16 17 16 15 11 7 7 5 6 4 6 5 6 8 4 4 4 4 3 3 3 2 2 3 5 3 2 3 2 3 3 4 6
3 3 4 4 4 4 5 4 6 7 6 8 8 7 6 7 8 8 7 7 8 7 6 5 5 5 4 4 5 5 5 9 7 13 15 16 16 13 8 8 9 10 9 8 8 8 9 9 8 11 15 15 14 15 15 14 14 7 6 9 8 9 6 5 4 4 4 4 3 2 2 2 1 1 3 2 0 0 1 2 3 3 4 3 3
4 4 4 4 4 5 4 6 6 5 7 8 9 9 7 8 7 8 9 8 8 8 7 7 6 6 5 3 4 4 5 6 10 9 14 15 16 13 13 10 13 10 10 9 9 8 7 8 8 13 14 14 15 15 14 13 10 6 10 9 10 6 7 5 5 4 4 2 1 1 2 2 2 1 1 2 1 1 1 2 3 3 2 2 4
4 4 4 4 5 4 5 4 5 5 6 7 7 8 7 7 7 7 7 8 8 8 6 6 6 6 6 5 4 4 4 4 7 10 11 16 15 14 13 14 14 7 8 9 9 8 9 8 9 15 15 15 15 14 13 9 6 9 8 8 7 9 4 5 3 3 3 2 1 1 1 1 2 2 2 2 2 0 0 1 2 3 2 2 3
5 5 5 5 5 4 5 5 6 6 6 8 8 7 7 7 7 5 7 7 7 8 7 7 7 7 6 6 5 4 4 4 5 8 12 14 15 15 14 15 15 14 8 6 8 8 10 13 16 17 17 16 15 12 9 9 9 8 8 9 7 4 5 4 5 4 3 2 2 2 3 4 5 3 5 4 2 1 2 1 0 0 2 2 1
5 6 5 5 5 6 7 5 6 7 7 6 8 8 9 8 8 7 6 6 6 7 7 7 6 7 6 6 6 5 5 4 5 6 8 11 11 14 14 15 14 12 10 8 10 15 16 17 18 17 14 11 7 6 5 4 7 7 7 8 4 6 5 6 4 4 2 2 3 4 6 3 3 4 1 3 3 0 0 1 3 3 2 1 2
5 4 6 5 5 6 8 7 7 6 6 6 6 7 6 7 7 7 7 7 7 7 7 7 7 7 7 7 6 5 5 5 5 6 6 8 7 9 10 10 13 13 9 9 12 11 12 11 9 9 9 10 9 7 6 6 5 4 3 4 4 4 5 4 4 4 3 3 4 5 4 4 1 1 2 2 1 2 1 0 0 1 1 1 2
6 5 5 5 5 6 7 9 9 7 6 7 7 6 6 6 8 8 8 9 9 8 7 8 8 8 8 8 7 6 6 6 7 8 8 8 8 8 7 8 7 7 8 7 8 9 9 9 11 7 7 6 6 4 4 4 4 4 4 3 3 3 4 5 4 3 4 4 3 1 0 2 3 3 1 1 1 1 1 2 1 0 1 1 4
4 5 5 5 5 4 6 6 7 7 7 6 6 6 8 8 7 5 3 3 4 8 9 7 6 6 7 9 10 8 6 8 8 8 8 11 9 9 8 8 7 6 9 12 9 8 8 7 7 7 6 7 5 5 5 4 3 3 3 1 2 3 3 3 5 3 1 2 3 3 2 2 1 0 0 0 1 0 0 1 1 0 2 1 3
5 5 5 5 5 5 5 5 6 7 7 7 7 6 6 7 4 6 6 6 6 3 3 4 5 6 7 5 7 10 11 8 10 13 12 12 12 13 11 11 10 9 13 16 9 8 7 7 6 7 7 6 6 6 6 5 5 4 4 5 5 4 4 1 2 3 2 2 1 1 0 1 0 0 1 0 1 3 3 4 1 1 1 2 3
5 6 6 6 7 6 6 6 6 6 7 7 7 8 7 6 8 8 7 8 8 9 8 8 10 9 8 7 5 4 7 13 16 14 14 14 14 14 14 14 15 16 17 11 7 7 7 7 6 6 6 6 6 6 6 5 5 5 5 3 3 4 4 4 2 2 3 1 1 1 1 2 2 2 3 2 2 2 2 2 1 2 2 1 2
7 7 7 6 7 7 6 7 8 8 7 7 8 8 8 8 7 8 10 11 11 11 11 12 12 11 11 9 7 4 12 17 17 16 15 15 14 15 15 17 17 19 18 14 8 7 7 7 7 7 7 6 6 6 5 6 6 6 5 5 3 2 4 3 1 3 2 2 2 3 3 2 2 2 2 1 2 1 1 2 2 2 2 2 2
7 6 7 7 7 7 6 6 7 8 9 9 9 9 9 9 10 10 8 11 12 12 12 13 13 12 12 11 10 10 11 14 17 17 17 16 16 16 16 18 19 20 17 9 7 8 7 7 7 7 7 7 6 6 5 6 6 6 6 5 5 2 4 2 3 3 2 2 3 2 2 2 2 4 3 3 2 1 1 1 1 1 1 1 2
7 7 8 9 9 9 9 8 8 7 7 7 8 9 8 9 9 10 11 9 9 10 11 13 13 13 13 13 13 13 15 17 17 18 18 18 18 18 17 14 19 19 12 7 8 8 7 7 6 7 6 6 6 6 6 5 5 5 4 3 5 4 2 1 4 2 2 3 3 1 1 2 3 2 1 1 1 1 1 1 1 1 2 1 2
9 10 13 10 9 9 9 8 8 8 8 8 8 8 8 8 8 9 9 11 11 10 8 8 10 12 10 11 14 16 16 17 18 18 18 18 19 20 18 12 12 10 8 5 6 6 7 7 7 6 6 6 7 6 6 5 5 5 6 5 4 3 4 2 2 2 3 2 2 1 2 2 2 3 1 1 1 1 1 1 1 1 1 2 2
9 8 10 12 9 8 9 9 9 9 9 9 8 7 7 8 8 7 6 7 9 9 8 7 7 11 16 14 17 17 17 17 17 18 18 19 20 20 11 8 8 7 7 6 6 6 5 6 6 6 6 6 6 6 6 6 5 6 6 7 6 4 4 3 4 3 2 3 2 1 2 2 2 2 2 1 1 1 1 1 1 1 1 1 2
9 9 9 8 8 8 8 8 8 8 7 7 8 8 8 7 5 7 6 8 8 7 9 9 9 8 7 6 12 15 17 16 16 16 16 17 18 10 4 7 7 6 5 6 6 6 6 5 6 6 6 6 5 5 6 5 6 5 4 5 5 5 4 4 3 4 3 2 1 2 3 2 2 1 2 1 1 0 1 1 1 3 3 4 4
10 10 10 10 9 8 8 8 8 9 7 7 7 8 9 8 8 8 8 8 8 10 10 8 7 10 12 8 7 6 10 13 13 9 7 7 4 5 5 3 4 6 6 5 5 6 5 4 5 6 5 6 6 5 6 6 6 6 5 4 4 4 5 2 4 4 3 4 4 3 3 2 2 1 2 1 1 1 1 2 1 2 3 5 2
9 11 13 15 13 11 10 10 9 10 9 8 8 8 8 8 8 8 7 8 8 8 7 8 8 8 8 7 7 8 10 6 6 6 5 4 3 4 5 5 4 5 4 6 5 5 6 6 4 4 6 6 7 6 7 6 5 5 5 6 5 3 3 4 4 5 4 4 4 4 4 2 2 2 2 2 1 1 2 2 2 2 3 5 5
9 8 10 13 8 9 7 8 9 9 9 10 10 9 8 9 10 10 9 10 9 9 8 9 8 7 6 6 7 7 8 7 6 6 5 5 4 3 5 6 6 6 6 6 5 6 6 5 5 6 6 6 6 6 5 6 5 5 5 6 6 5 5 5 5 5 6 4 5 5 4 3 2 2 1 2 3 2 2 3 3 3 3 3 4
9 9 10 12 11 9 8 8 8 9 8 8 8 8 9 8 8 8 9 9 9 8 8 6 6 5 5 7 10 8 6 7 6 4 5 5 4 4 4 4 6 5 4 6 5 6 6 6 5 5 5 5 5 5 5 5 5 5 5 5 4 4 4 4 5 5 4 5 5 5 4 4 3 3 3 3 4 3 3 2 2 3 4 3 4
8 8 10 9 11 12 11 10 8 9 9 6 8 8 6 6 8 8 8 9 7 7 8 7 6 6 7 14 11 11 8 6 6 6 4 4 4 4 3 3 2 4 5 5 6 6 5 6 5 5 6 4 5 4 4 4 4 5 5 5 6 5 6 6 6 5 5 5 5 6 5 5 4 4 4 5 3 2 1 2 3 3 4 4 4
8 8 8 7 8 9 10 10 9 10 9 10 8 6 6 7 7 6 7 6 8 8 8 8 7 6 7 11 10 11 7 7 6 6 6 5 4 4 4 4 4 3 4 3 3 5 6 6 5 5 5 6 5 6 6 6 5 6 5 5 6 6 6 5 4 6 4 5 5 4 5 5 5 4 4 3 2 2 3 3 3 3 4 4 4
6 5 4 5 3 3 3 6 7 6 7 7 8 7 7 6 7 7 7 7 7 7 8 8 8 8 7 6 8 7 7 7 7 7 6 6 5 6 5 4 4 5 4 5 4 5 6 6 5 3 2 3 3 2 4 4 5 6 6 6 5 6 6 6 7 6 7 6 6 5 5 4 4 4 4 4 3 3 4 3 4 4 4 5 4
7 8 8 7 7 6 4 3 4 6 7 7 7 7 5 7 7 7 7 7 6 7 7 7 7 7 6 6 6 7 7 7 7 7 6 7 6 7 5 5 5 6 5 4 3 4 4 5 5 4 2 1 1 3 3 4 4 6 6 6 6 7 7 7 8 6 6 6 6 5 4 6 5 6 5 4 4 4 4 4 4 4 4 4 4
5 6 6 8 8 8 7 6 4 5 6 7 7 7 6 7 7 7 7 7 7 8 8 7 6 6 6 6 6 6 6 7 7 6 7 6 7 6 5 6 5 5 4 4 3 3 3 4 4 4 4 4 4 4 4 4 4 4 4 5 6 7 6 5 3 5 6 6 7 6 5 5 5 6 6 5 5 4 5 4 4 4 5 5 5
11 9 9 8 9 7 7 7 7 6 6 5 5 6 6 6 6 6 5 7 8 6 7 7 7 7 6 6 6 6 6 7 7 7 6 6 6 6 5 4 5 4 3 3 3 4 3 3 4 4 4 4 4 5 5 5 5 5 4 5 6 6 5 4 5 5 6 6 6 5 6 6 6 5 6 5 4 5 4 6 5 6 5 5 5
8 8 8 8 10 10 9 9 10 8 7 6 6 5 6 6 6 6 6 7 7 7 7 6 6 6 5 6 5 6 5 5 5 5 5 5 5 5 5 4 5 5 4 3 3 3 3 4 3 3 4 4 5 5 5 5 4 5 5 6 6 6 6 6 5 6 5 5 5 5 5 6 6 5 5 6 5 5 5 6 4 4 5 5 6
9 10 10 10 10 10 9 9 7 8 8 8 8 7 6 7 6 6 6 6 7 6 7 7 7 6 5 5 5 5 5 4 5 5 5 4 4 4 5 4 4 4 4 3 3 2 3 3 4 4 5 5 5 5 5 5 5 5 6 5 7 11 11 9 6 6 6 6 5 5 4 6 6 5 5 5 6 5 6 4 4 5 4 4 4
7 7 9 9 9 8 7 7 8 8 6 7 8 8 7 6 7 6 6 7 6 6 6 6 6 6 6 6 5 5 5 5 5 5 5 5 4 4 3 3 2 2 2 2 3 3 3 3 4 5 5 5 5 5 5 5 6 6 5 7 10 13 13 12 11 8 7 5 6 6 6 6 5 5 5 6 5 5 5 6 5 6 5 5 5
7 8 8 9 9 9 9 9 8 7 7 6 6 6 8 8 8 6 6 7 7 6 6 6 5 5 5 5 4 6 5 5 5 5 4 4 3 3 3 3 3 2 3 3 3 3 4 4 4 5 5 5 5 5 5 5 5 6 8 11 13 13 13 11 9 10 10 7 5 6 6 6 6 6 6 5 5 6 8 6 6 5 5 5 5
Wind_Direction
203 210 196 207 201 204 205 202 206 202 201 202 204 205 198 196 194 189 172 186 171 174 174 177 179 183 182 187 188 188 190 188 185 178 186 190 190 179 162 166 168 166 155 159 166 165 167 163 166 162 159 153 154 142 129 132 130 128 134 124 122 130 124 116 123 126 13 340 119 151 143 132 167 194 212 227 232 228 222 236 235 235 244 249 254
210 205 206 205 207 207 203 202 200 200 202 204 205 203 196 195 191 182 188 183 176 177 179 178 180 180 181 186 188 189 191 187 180 177 181 183 189 177 165 167 169 165 162 167 168 170 161 157 160 159 169 156 151 143 142 139 138 129 131 126 123 119 133 106 118 123 168 1 57 49 85 145 153 181 205 221 241 229 236 242 244 233 244 247 249
214 205 207 209 214 208 200 201 197 202 204 207 208 203 199 195 191 191 189 182 188 182 180 178 179 179 182 184 184 185 185 184 183 182 187 184 183 181 173 170 170 168 173 175 171 163 159 163 163 158 150 143 148 141 139 140 142 134 130 121 114 110 94 108 114 110 146 194 176 129 144 171 200 217 217 228 239 230 245 250 247 252 242 241 248
217 212 212 218 211 204 208 202 201 205 208 208 208 204 198 196 191 201 195 182 188 193 183 178 175 178 180 180 181 182 183 184 183 191 191 187 185 181 176 177 175 175 174 169 165 165 165 157 165 162 156 147 146 145 146 143 141 134 126 120 117 114 102 88 98 131 144 159 212 165 165 170 251 246 243 237 242 257 235 259 253 251 253 243 240
222 224 213 212 210 210 214 203 207 209 210 204 208 200 200 196 193 199 192 195 193 179 184 177 177 179 180 179 182 186 187 185 187 190 190 187 183 176 174 175 177 177 174 169 167 167 168 170 166 163 157 147 151 152 158 151 149 137 132 134 125 125 112 114 118 119 140 167 167 192 147 193 225 245 213 231 262 252 258 249 251 257 268 248 246
222 217 211 208 213 214 214 210 214 212 208 206 204 199 197 194 194 202 191 193 189 187 178 179 179 181 183 186 186 189 185 187 190 190 187 178 173 172 173 176 176 171 168 167 173 177 174 172 167 166 163 159 164 162 160 155 151 143 135 132 128 122 122 127 128 138 148 158 157 191 185 198 271 241 229 210 240 275 279 263 263 263 267 279 255
210 213 210 211 215 219 212 214 212 212 209 207 203 200 197 195 191 197 193 192 187 184 182 177 181 181 190 185 188 184 185 187 189 185 181 177 174 170 170 170 168 171 173 172 177 180 178 170 170 171 170 166 162 165 162 157 151 142 139 135 134 129 135 141 141 147 153 155 165 178 208 243 216 266 245 205 233 235 265 293 283 241 248 254 279
199 209 209 216 220 222 214 210 209 209 206 203 201 200 196 195 196 193 186 193 192 188 181 180 182 185 188 186 185 180 180 184 186 185 182 178 172 174 172 170 167 170 173 176 176 178 174 172 175 177 175 172 166 164 159 150 138 131 141 132 134 134 141 144 147 155 158 165 182 196 206 221 236 232 236 291 292 281 238 246 280 295 284 252 237
194 202 206 217 224 218 203 205 203 202 200 201 199 196 193 192 190 188 192 196 191 189 181 179 174 181 176 177 177 178 183 186 185 183 180 178 174 172 170 167 164 165 170 172 176 173 170 172 174 178 177 175 169 157 153 144 141 138 150 141 140 139 139 151 160 156 156 159 207 203 210 228 235 232 265 245 247 262 253 247 275 278 286 295 272
203 203 206 218 224 206 199 195 196 194 198 201 199 190 189 187 186 189 194 192 188 182 179 177 175 177 172 174 174 178 186 186 186 183 177 173 171 163 159 164 164 167 169 171 168 175 177 171 167 166 162 160 151 146 141 143 141 146 157 152 150 146 155 157 165 168 157 178 211 197 213 232 221 227 229 241 249 277 293 285 287 294 303 294 295
213 213 215 217 213 194 196 201 187 197 201 194 194 188 187 182 187 191 191 188 186 181 174 178 177 174 176 176 179 186 189 190 187 181 169 165 164 165 168 172 171 172 174 176 174 164 162 167 163 152 146 146 152 145 141 141 141 142 151 157 159 157 155 160 175 167 172 196 196 193 216 227 229 209 230 247 255 254 271 273 275 305 314 319 312
213 219 226 228 201 194 201 193 193 200 188 197 189 187 179 182 189 189 188 188 187 177 181 180 175 176 176 177 182 188 193 191 186 184 175 168 167 169 172 170 175 176 180 177 169 165 162 157 158 157 160 157 154 147 143 145 146 150 154 157 162 165 162 156 161 167 183 185 195 210 192 226 201 205 224 220 249 248 250 272 284 295 298 292 287
215 222 224 217 215 206 191 194 200 195 196 189 183 178 182 184 188 186 192 186 175 184 184 175 180 175 174 176 185 188 194 190 188 183 181 176 167 162 173 172 173 180 172 170 167 164 158 154 152 159 159 155 148 145 143 141 140 145 151 154 163 173 183 176 155 158 168 178 187 204 202 199 205 221 201 195 225 280 283 281 275 267 268 274 282
215 224 220 216 210 204 198 196 200 200 185 182 180 182 183 192 187 186 178 175 183 187 182 180 175 178 179 182 188 189 190 191 187 185 186 180 164 161 168 169 170 170 172 169 166 165 164 160 156 154 157 154 146 144 141 140 141 140 148 157 167 192 201 210 215 199 186 186 189 213 218 172 220 216 225 253 275 266 266 268 261 270 275 276 288
221 223 222 219 205 203 200 198 200 189 184 182 183 187 188 184 181 183 178 179 181 185 180 178 180 178 181 180 177 178 183 182 181 179 177 163 156 150 156 157 162 166 167 167 169 171 168 166 162 156 155 154 156 152 146 149 149 154 159 168 183 190 198 212 208 207 209 200 200 216 220 214 224 235 233 229 233 243 251 263 271 276 278 283 284
223 219 224 215 209 205 197 198 195 186 184 184 186 190 187 183 183 178 174 180 185 181 189 179 175 175 172 169 165 176 181 180 174 177 173 161 152 146 156 159 158 158 158 164 166 169 168 163 155 154 156 156 165 159 152 146 149 155 163 171 175 183 210 211 213 218 213 211 219 220 220 220 232 224 225 224 228 234 233 240 261 275 292 294 291
220 216 219 210 207 199 195 191 190 187 187 187 192 188 182 181 178 168 171 177 177 184 184 178 174 170 169 170 168 171 179 180 178 179 175 156 150 153 155 156 157 159 164 164 164 162 168 168 159 155 156 159 164 159 153 146 150 158 160 169 172 179 217 216 224 230 231 232 230 231 236 239 256 274 284 289 285 271 266 273 258 255 269 284 288
227 220 222 213 204 194 191 188 191 191 189 194 189 182 176 176 177 173 173 172 181 184 174 167 167 167 167 170 168 165 175 181 177 177 172 158 152 157 159 154 156 156 154 156 153 159 167 168 163 158 157 159 164 161 158 150 153 157 158 162 173 190 213 198 200 226 234 239 242 246 251 258 266 274 282 289 288 287 272 268 269 267 270 270 282
228 223 224 207 199 194 192 192 190 186 189 187 175 173 178 179 169 166 172 169 175 165 163 159 157 161 168 164 161 159 166 176 174 175 171 159 156 158 154 152 151 155 152 151 153 155 159 166 166 163 159 161 167 165 166 164 154 165 166 164 176 189 197 174 188 204 218 191 255 227 267 257 257 252 249 264 275 281 276 268 265 260 263 271 284
243 236 218 201 199 192 188 186 183 179 178 167 167 169 153 142 157 160 158 154 153 156 157 155 156 161 159 160 166 163 165 177 180 178 171 160 157 152 152 151 156 155 155 153 149 152 155 158 169 169 159 160 165 171 173 170 161 164 160 166 170 196 185 177 193 180 194 189 206 198 215 222 226 245 251 245 265 254 244 243 250 264 273 278 284
224 215 201 194 190 189 183 180 172 173 168 164 155 148 153 153 149 151 149 144 143 148 151 149 147 147 153 153 153 162 168 169 182 183 170 161 158 153 162 154 151 154 154 156 160 157 159 164 165 170 159 160 169 175 179 180 176 162 173 169 183 179 159 172 203 204 195 199 196 190 192 199 205 195 203 236 240 259 303 296 283 259 267 268 280
205 190 184 184 180 174 173 168 166 156 147 141 143 148 151 149 154 150 149 149 151 151 147 146 141 138 139 144 151 159 172 168 172 184 170 161 161 158 152 159 157 150 152 157 159 165 166 164 165 172 165 169 171 175 178 184 182 167 177 187 192 204 198 178 168 157 161 157 154 151 162 149 158 196 240 244 241 272 268 279 277 274 278 275 296
174 169 165 163 166 163 161 156 150 147 149 152 148 148 149 148 149 148 148 149 149 148 149 145 141 140 134 138 147 159 167 172 173 176 173 165 165 160 156 159 159 155 156 163 169 167 165 166 167 173 172 171 175 176 178 179 182 171 189 192 203 188 119 131 126 123 126 135 135 173 199 177 172 206 160 123 47 45 350 314 291 283 285 314 350
152 151 156 156 147 150 149 144 138 141 144 139 140 140 147 146 144 152 151 150 151 148 152 147 144 146 147 144 149 156 163 163 179 171 170 167 168 164 159 157 160 161 163 165 166 163 160 164 164 171 173 173 173 173 175 162 137 162 168 182 135 119 123 118 114 130 133 128 139 157 202 225 149 194 200 186 188 187 259 304 307 316 30 32 19
153 156 157 156 149 142 132 135 138 136 140 142 140 145 142 144 144 153 149 151 153 154 157 158 156 155 149 153 153 152 158 164 170 173 167 166 167 165 161 162 166 161 155 157 153 158 154 151 154 160 164 163 160 155 155 152 165 169 187 131 115 108 116 124 127 122 123 150 165 187 199 214 201 204 209 187 164 112 96 0 347 196 148 138 148
160 162 158 153 151 144 133 129 133 137 141 146 147 152 152 153 149 154 152 155 156 156 159 158 156 153 155 153 155 151 150 150 163 166 164 161 163 165 165 165 161 153 145 141 143 139 139 140 145 145 145 141 125 113 120 126 151 149 136 115 111 124 130 126 130 123 155 185 185 200 219 214 225 227 187 129 109 131 145 251 237 283 39 13 11
161 159 158 153 150 150 144 146 141 137 136 133 137 142 146 146 149 156 160 160 160 162 162 163 160 160 160 158 149 150 147 152 156 159 159 157 156 154 146 140 134 131 129 135 136 137 128 127 127 125 124 126 127 128 126 129 116 114 118 125 137 146 143 138 149 170 193 203 216 221 223 224 223 137 119 107 95 266 282 355 103 209 169 264 323
167 170 163 158 156 156 147 145 142 141 144 143 140 140 146 154 159 166 171 170 164 167 169 172 173 171 163 155 150 148 159 163 171 167 165 157 153 146 139 135 136 133 129 122 117 118 117 120 117 109 111 102 107 102 110 121 142 142 154 154 159 151 170 186 183 175 204 197 211 187 173 119 98 110 110 124 233 283 99 124 158 255 263 345 335
163 157 161 151 156 157 151 151 148 144 143 141 143 154 161 165 161 161 163 174 186 174 170 170 171 167 158 160 158 161 165 182 188 172 161 160 150 148 145 145 138 133 138 128 112 103 104 108 119 123 132 138 137 142 151 154 161 162 161 165 190 188 197 193 208 219 169 129 115 113 114 109 108 106 117 102 287 179 232 85 331 89 321 337 283
167 173 167 161 155 155 152 150 150 147 145 142 132 103 89 112 140 153 158 150 143 132 144 164 162 152 155 172 177 173 181 174 164 165 160 151 150 149 144 142 140 137 142 134 126 127 133 135 144 145 148 149 155 164 170 174 176 177 190 201 195 198 195 136 101 110 96 104 124 111 140 116 61 48 54 58 17 39 359 31 341 339 19 322 316
180 180 172 171 168 161 159 151 155 148 148 145 136 129 118 99 110 130 140 145 150 154 156 145 149 154 153 158 175 164 141 155 164 167 163 157 152 147 146 147 146 149 143 126 120 139 145 149 153 153 156 159 169 170 171 170 180 177 181 164 146 145 121 115 121 90 83 91 73 88 97 99 89 56 76 34 68 8 11 343 41 26 21 336 330
186 187 179 169 167 167 159 159 156 155 151 147 143 141 132 124 97 89 117 146 152 153 151 148 151 151 154 149 146 144 159 161 163 165 166 165 161 159 158 162 161 162 154 141 132 152 157 155 160 165 166 170 176 175 174 175 175 171 158 146 129 115 132 126 135 108 104 89 93 81 73 72 77 72 72 58 58 28 31 14 11 22 338 354 314
189 182 175 167 165 158 157 165 166 162 157 153 154 151 147 143 134 125 92 101 115 125 129 133 138 143 146 151 153 153 152 157 160 162 164 165 164 165 164 168 168 164 150 143 152 156 163 165 167 169 177 179 176 175 175 167 163 165 168 163 151 138 123 116 98 103 102 118 107 95 91 78 86 82 78 64 72 50 7 11 348 17 17 7 313
183 184 179 176 167 166 168 170 170 170 163 160 158 155 155 148 147 138 132 126 103 93 101 115 125 129 133 136 141 144 146 152 157 160 163 162 158 157 156 159 161 164 160 154 162 167 166 172 175 179 176 165 165 157 159 159 151 143 131 128 132 131 144 118 83 92 84 75 93 90 87 86 90 99 62 50 42 84 37 328 29 29 331 297 281
177 180 181 178 175 173 169 169 170 165 168 165 163 161 154 154 147 148 149 143 140 137 135 125 121 125 130 133 137 141 145 148 152 156 156 154 154 154 152 154 162 172 165 169 171 172 171 173 173 168 164 164 165 157 156 153 144 144 148 142 136 131 113 97 117 113 113 99 80 75 95 105 102 106 125 118 29 13 340 325 319 299 274 295 302
180 178 180 183 177 172 170 174 171 171 171 170 165 154 149 149 148 144 134 126 131 132 124 124 130 134 134 137 141 143 146 149 153 154 156 158 158 159 159 169 168 173 162 166 170 162 154 161 154 162 158 155 151 151 152 155 160 155 153 149 159 157 142 134 139 122 118 121 135 129 94 85 101 109 88 89 149 184 201 239 269 283 277 275 277
177 180 181 183 177 172 175 171 172 170 166 160 155 150 147 141 136 135 135 137 132 126 126 130 123 116 119 122 144 147 149 152 155 159 162 168 171 162 156 170 170 155 157 161 150 144 153 162 150 150 156 149 153 150 142 146 143 141 146 145 148 147 171 163 166 147 145 135 140 129 137 141 130 136 132 154 260 180 214 237 267 274 270 282 301
182 181 183 178 172 171 168 170 165 157 156 159 161 154 147 146 146 146 143 143 144 141 142 136 131 135 135 132 124 133 143 143 140 137 142 144 98 117 144 128 141 160 155 148 150 143 148 148 147 146 150 140 144 141 136 139 143 142 144 149 147 161 173 173 168 153 161 153 157 162 151 145 150 146 137 139 181 216 270 257 248 264 292 292 285
190 188 184 178 178 173 170 165 161 160 160 163 164 159 155 148 145 144 145 146 145 145 138 138 140 138 132 130 124 126 116 102 127 140 110 76 69 95 125 134 127 117 133 146 141 140 143 147 136 123 133 135 137 141 142 149 144 147 148 143 148 164 156 146 158 170 163 171 180 176 158 169 173 163 155 151 196 201 227 248 258 247 255 273 272
185 180 182 178 175 174 167 165 163 162 166 165 166 163 156 159 159 157 156 156 155 153 151 146 146 140 135 123 125 129 134 135 136 135 123 116 107 97 122 143 150 153 154 151 145 140 135 137 140 131 132 129 135 140 144 146 157 156 150 155 160 179 194 183 176 171 184 194 179 181 170 185 194 165 150 166 195 204 203 241 251 244 243 250 264
187 179 174 178 171 162 157 159 167 170 172 172 167 168 170 162 156 157 157 156 152 148 144 138 126 119 113 123 125 114 120 133 135 124 127 128 126 114 110 125 139 138 138 140 141 134 135 138 134 132 129 132 133 136 143 143 147 145 155 165 169 184 190 198 191 192 188 178 184 186 196 183 175 157 203 228 208 209 220 226 239 250 257 264 264
179 174 177 179 170 167 165 169 168 160 159 157 165 171 161 159 157 160 158 153 149 142 134 124 120 121 136 136 137 124 115 119 118 117 111 108 108 104 109 108 119 136 142 143 142 136 133 132 139 134 137 139 137 140 136 149 156 164 169 172 181 190 193 203 200 196 185 192 194 195 192 188 189 194 199 202 195 203 235 251 244 249 259 255 262
176 172 174 170 174 175 173 167 159 158 156 161 163 148 145 149 154 153 151 148 146 143 139 138 141 140 141 160 147 123 117 131 132 131 130 125 120 119 122 129 127 130 131 138 132 134 135 136 141 148 151 164 166 162 169 177 172 173 178 185 192 198 207 210 206 205 195 190 197 200 196 202 199 188 188 198 206 216 223 230 249 255 254 257 258
151 138 136 136 125 93 99 135 149 145 145 132 126 133 140 138 136 141 144 142 143 139 138 141 144 148 140 122 109 114 126 129 133 137 139 134 136 137 142 137 121 107 106 113 122 122 122 124 133 146 150 157 168 166 166 173 168 175 184 192 203 206 210 210 209 208 197 199 201 200 201 197 196 184 195 200 183 201 230 229 237 242 248 253 252
149 148 145 134 124 118 102 75 97 113 116 120 124 127 133 137 140 137 139 138 135 132 136 142 143 131 122 126 123 126 133 133 135 134 140 145 147 149 147 143 140 135 129 120 105 101 108 122 128 128 139 190 174 182 183 187 182 187 185 187 200 211 212 210 216 207 191 188 201 199 197 191 196 192 200 207 199 203 224 225 224 237 249 251 247
135 138 140 138 134 131 127 122 116 123 130 136 138 141 135 132 133 137 138 136 138 140 141 139 132 125 126 124 125 125 132 131 136 140 142 143 144 153 159 155 151 148 143 140 124 111 117 128 144 162 179 200 209 223 220 215 213 212 207 208 214 223 223 212 195 179 189 193 197 198 197 196 200 199 202 202 210 204 216 231 224 223 222 239 246
153 151 146 138 132 121 119 123 126 126 120 122 123 125 124 123 122 122 124 130 135 135 137 137 134 136 132 133 135 139 140 139 146 145 151 154 150 151 151 142 133 128 134 130 137 147 152 159 169 179 196 204 211 220 224 225 225 224 222 225 230 236 235 214 200 200 205 203 193 182 195 193 207 210 210 204 206 213 216 224 219 228 231 232 236
140 135 137 136 131 132 135 135 128 123 122 123 118 120 120 122 123 123 127 129 129 132 130 127 127 129 131 135 138 141 144 142 138 137 136 143 151 146 142 141 147 156 149 156 165 168 176 182 189 195 207 212 213 225 229 228 228 228 229 230 228 230 226 216 213 218 218 201 197 199 197 204 215 206 207 202 212 208 215 234 229 233 229 232 238
137 138 140 138 131 134 136 134 132 132 131 129 126 123 123 119 119 120 125 125 130 135 140 140 139 140 141 150 147 141 137 132 134 137 143 147 149 154 154 158 152 147 151 179 191 190 199 201 206 209 217 220 223 226 232 230 232 235 233 234 232 234 229 217 211 221 197 197 207 201 204 205 208 212 206 207 210 207 217 233 224 233 236 236 232
121 129 127 121 118 117 111 111 114 118 122 130 129 125 121 120 124 126 126 126 126 129 134 138 142 149 147 147 145 146 142 148 152 155 158 158 160 159 155 149 151 155 170 206 209 204 212 214 216 221 224 225 226 229 229 230 233 234 235 237 241 242 239 228 220 208 190 207 196 201 198 207 207 207 208 208 206 206 216 228 226 228 229 233 236
120 116 113 112 111 112 114 115 106 117 126 120 107 115 128 122 115 123 131 135 138 140 139 143 140 139 141 147 147 154 158 163 161 157 157 158 159 144 150 156 175 186 201 204 213 212 214 217 222 225 227 227 229 230 231 234 236 237 239 244 245 245 243 238 231 224 207 189 190 187 194 201 205 209 211 207 201 205 219 222 224 223 228 228 234